[[{"header":{"parameterUnit":"m.s-1","parameterCategory":1,"la1":30.2991,"la2":30.254,"lo1":-89.0895,"lo2":-89.0444,"dy":0.0017,"dx":0.0017,"nx":28,"ny":28,"refTime":"2024-07-04T21:00:00:Z","depth":0,"parameterNumber":2,"parameterNumberName":"U-component_of_WINDS"},"data":[0,0,0,0,0,0,0,0,0,0,0,0,0,0,0,0,0,0,0,0,0,0,0,0,0,0,0,0,0,0,0,0,0,0,0,0,0,0,0,0,0,0,0,0,0,0,0,0,0,0,0,0,0,0,0,0,0,0,6.6121,6.6123,0,6.6267,6.6269,6.627,6.615,6.6145,6.614,6.6135,6.6284,6.6292,6.6301,0,0,0,0,0,0,0,0,0,0,0,0,0,6.5737,6.5744,6.6121,6.6123,6.6125,6.6267,6.6269,6.6271,6.6151,6.6145,6.6139,6.6133,6.6281,6.6291,6.6301,0,0,0,0,0,0,0,0,0,0,0,0,0,6.5895,6.5747,6.6121,6.6082,6.608,6.6266,6.6269,6.6271,6.6152,6.6145,6.6137,6.613,6.6277,6.629,6.6303,6.6534,0,0,6.6342,6.6348,0,0,0,0,0,0,0,0,6.5886,6.5909,6.6086,6.6085,6.6083,6.6183,6.6187,6.6359,6.6154,6.6125,6.6135,6.6126,6.6256,6.627,6.6314,6.6541,6.6548,6.6344,6.6351,6.6357,6.6361,0,0,0,0,0,0,0,6.5876,6.5903,6.6179,6.6089,6.6087,6.6057,6.6071,6.6219,6.6231,6.6127,6.6119,6.6137,6.6254,6.6302,6.6317,6.655,6.6343,6.6355,6.6363,6.6368,6.6971,6.6979,0,0,0,0,0,0,6.5869,6.5894,6.6174,6.6183,6.5964,6.607,6.6086,6.6158,6.6229,6.6233,6.6144,6.6131,6.6284,6.6302,6.6322,6.6595,6.6357,6.6369,6.6377,6.6963,6.6973,6.6981,0,0,0,0,0,0,6.5861,6.5895,6.6168,6.6036,6.6069,6.6085,6.6167,6.6165,6.6213,6.6242,6.6243,6.6191,6.6278,6.6303,6.6482,6.6598,6.6375,6.6387,6.6953,6.6966,6.6977,6.7145,0,0,0,0,0,0,6.585,6.5893,6.5982,6.6039,6.6076,6.6327,6.6174,6.6174,6.6236,6.6221,6.6287,6.629,6.6274,6.6463,6.6495,6.6612,6.6397,6.6942,6.6959,6.6973,6.7129,6.7161,6.7189,0,0,0,0,0,6.5837,6.6024,6.5987,6.6021,6.6188,6.6334,6.6355,6.6333,6.6246,6.6335,6.6353,6.6288,6.6581,6.6482,6.6517,6.664,6.6935,6.6954,6.6972,6.7115,6.7155,6.7189,0,0,0,0,0,0,6.5979,6.603,6.599,6.6201,6.6264,6.6314,6.6425,6.6377,6.6466,6.6448,6.6417,6.6433,6.662,6.6648,6.6537,6.6866,6.6744,6.677,6.6841,6.6879,6.6908,6.6897,6.6408,0,0,0,0,0,6.6035,6.615,6.6189,6.6371,6.6405,6.641,6.6473,6.645,6.6514,6.654,6.6571,6.6636,6.6741,6.6812,6.6911,6.7133,6.7144,6.7235,6.7265,6.7289,6.7312,6.7428,6.7468,6.7042,6.7042,6.7042,0,0,6.6152,6.6194,6.6269,6.64,6.6447,6.6565,6.6433,6.6565,6.6652,6.656,6.6729,6.6755,6.6824,6.7025,6.7114,6.7054,6.7432,6.7313,6.7332,6.7341,6.7451,6.7492,6.7527,6.7055,6.7053,6.7051,0,0,6.6424,6.6469,6.6624,6.6673,6.6745,6.6746,6.6784,6.6841,6.6854,6.7024,6.6957,6.706,6.7244,6.7295,6.7345,6.7636,6.7578,6.7669,6.7826,6.794,6.7973,6.8003,6.8104,6.8141,6.7692,6.7692,6.7693,0,6.656,6.6737,6.671,6.6846,6.6905,6.6828,6.6984,6.7032,6.7133,6.7175,6.7106,6.7333,6.7375,6.7585,6.7655,6.77,6.7739,6.7661,6.7971,6.8,6.8027,6.8123,6.8161,6.7703,6.7701,6.77,6.7699,0,6.6898,6.7022,6.7139,6.7237,6.7309,6.7455,6.745,6.7526,6.7497,6.7506,6.7679,6.7726,6.7832,6.788,6.7854,6.8086,6.8046,6.7975,6.785,6.8078,6.8168,6.8205,6.7717,6.7714,6.7711,6.7708,0,0,6.7264,6.7345,6.7389,6.7431,6.7504,6.7598,6.774,6.7843,6.7908,6.798,6.8096,6.8253,6.8187,6.8244,6.8223,6.8323,6.8546,6.8239,6.824,6.8292,6.8802,6.8853,6.8896,6.851,6.8517,6.8522,6.8795,0,6.7538,6.7784,6.7764,6.7996,6.8108,6.8035,6.8158,6.8215,6.8227,6.8323,6.8336,6.8447,6.8352,6.8386,6.8482,6.8499,6.8648,6.8479,6.8615,6.8621,6.8598,6.8944,6.8999,6.9254,6.883,6.8836,6.884,0,6.789,6.7973,6.8217,6.827,6.8316,6.8427,6.8519,6.8613,6.8675,6.8677,6.874,6.8701,6.8842,6.8716,6.8908,6.8794,6.8848,6.8865,6.8874,6.8884,6.8743,6.8961,6.9336,6.9373,6.8896,6.8891,6.8887,0,6.8129,6.8303,6.847,6.8509,6.8576,6.8655,6.8687,6.8742,6.8805,6.8885,6.8925,6.9022,6.9074,6.9149,6.9136,6.9046,6.9331,6.9205,6.9334,6.9335,6.9396,6.9392,6.9783,6.9436,6.9435,6.9434,6.9434,0,6.8436,6.8587,6.8577,6.868,6.8847,6.8822,6.8987,6.9009,6.9058,6.9163,6.9106,6.9205,6.9184,6.9282,6.9273,6.9432,6.9457,6.946,6.9456,6.9464,6.9464,6.9498,6.9479,6.9445,6.9442,6.944,6.9439,0,6.8731,6.8731,6.8908,6.8957,6.8972,6.9093,6.9133,6.923,6.9236,6.9369,6.9399,6.941,6.9522,6.9518,6.9646,6.9639,6.9834,6.981,6.9813,6.9807,6.9936,6.9923,7.036,7.0415,7.0035,7.0039,7.0042,0,6.8925,6.9039,6.91,6.9166,6.9202,6.931,6.9373,6.9353,6.9421,6.95,6.9586,6.9693,6.9778,6.9961,6.9979,7.0076,7.0052,7.0199,7.0067,7.0071,7.0051,7.0044,7.0054,7.0225,7.0229,7.0232,7.0235,0,6.9269,6.9263,6.9357,6.9452,6.9529,6.9602,6.9669,6.9726,6.9712,6.9792,6.9906,6.9971,7.0101,7.0207,7.03,7.033,7.0281,7.0277,7.0311,7.032,7.0316,7.0317,6.9881,7.0267,7.0263,7.0261,7.0259,7.0258,6.9518,6.9615,6.9673,6.9778,6.9826,6.989,6.9982,7.0,7.0095,7.0198,7.0181,7.0308,7.0365,7.0484,7.0523,7.0622,7.0569,7.062,7.0633,7.0645,7.0658,7.0302,7.0639,7.0638,7.0637,7.0636,7.0636,0,6.9857,6.989,6.9988,7.0083,7.0166,7.0112,7.0182,7.0255,7.0368,7.0426,7.051,7.064,7.0742,7.0768,7.0866,7.094,7.0919,7.0966,7.0959,7.0966,7.0701,7.066,7.0981,7.0981,7.0981,7.0981,7.0981,7.0981,7.0043,7.0204,7.0204,7.0387,7.0419,7.0543,7.0588,7.0645,7.0691,7.0838,7.0923,7.094,7.0984,7.1085,7.1175,7.118,7.1218,7.1274,7.1269,7.102,7.0986,7.0953,7.0914,7.1283,7.1283,7.1526,7.1529,7.153]},{"header":{"parameterUnit":"m.s-1","parameterCategory":1,"la1":30.2991,"la2":30.254,"lo1":-89.0895,"lo2":-89.0444,"dy":0.0017,"dx":0.0017,"nx":28,"ny":28,"refTime":"2024-07-04T21:00:00:Z","depth":0,"parameterNumber":3,"parameterNumberName":"V-component_of_WINDS"},"data":[0,0,0,0,0,0,0,0,0,0,0,0,0,0,0,0,0,0,0,0,0,0,0,0,0,0,0,0,0,0,0,0,0,0,0,0,0,0,0,0,0,0,0,0,0,0,0,0,0,0,0,0,0,0,0,0,0,0,2.352,2.352,0,2.3528,2.3528,2.3528,2.3506,2.3505,2.3505,2.3504,2.3512,2.3512,2.3513,0,0,0,0,0,0,0,0,0,0,0,0,0,2.3484,2.3485,2.352,2.352,2.3521,2.3528,2.3528,2.3528,2.3506,2.3505,2.3505,2.3504,2.3511,2.3512,2.3513,0,0,0,0,0,0,0,0,0,0,0,0,0,2.3497,2.3485,2.352,2.351,2.351,2.3528,2.3528,2.3528,2.3506,2.3505,2.3504,2.3503,2.3511,2.3512,2.3513,2.3542,0,0,2.3517,2.3518,0,0,0,0,0,0,0,0,2.3496,2.3498,2.3512,2.3511,2.351,2.3515,2.3518,2.3533,2.3507,2.3508,2.3504,2.3503,2.3514,2.3515,2.3518,2.3542,2.3542,2.3517,2.3518,2.3519,2.3519,0,0,0,0,0,0,0,2.3495,2.3498,2.3523,2.3512,2.3511,2.3505,2.3506,2.3521,2.3516,2.3507,2.3506,2.3507,2.3513,2.3517,2.3518,2.3543,2.3517,2.3518,2.3519,2.352,2.3587,2.3588,0,0,0,0,0,0,2.3496,2.3497,2.3523,2.3524,2.3501,2.3506,2.3507,2.3515,2.3516,2.3515,2.3508,2.3506,2.3515,2.3517,2.3518,2.355,2.3519,2.352,2.3521,2.3586,2.3588,2.3589,0,0,0,0,0,0,2.3495,2.3498,2.3523,2.351,2.3513,2.3508,2.3517,2.3515,2.3519,2.3516,2.3515,2.3513,2.3515,2.3517,2.3536,2.355,2.352,2.3522,2.3585,2.3587,2.3588,2.3615,0,0,0,0,0,0,2.3494,2.3498,2.351,2.351,2.3513,2.3541,2.3518,2.3516,2.3522,2.3519,2.3521,2.352,2.3514,2.3534,2.3537,2.3551,2.3523,2.3584,2.3586,2.3588,2.3612,2.3617,2.3621,0,0,0,0,0,2.3493,2.3517,2.351,2.3514,2.3528,2.3542,2.3543,2.3536,2.3523,2.3534,2.3531,2.352,2.3548,2.3536,2.3539,2.3554,2.3583,2.3585,2.3587,2.3611,2.3616,2.3621,0,0,0,0,0,0,2.3519,2.3517,2.351,2.3535,2.3538,2.3538,2.3551,2.3542,2.3549,2.3547,2.3537,2.3537,2.3557,2.3558,2.3544,2.358,2.3563,2.3566,2.358,2.3585,2.3589,2.3588,2.3524,0,0,0,0,0,2.3528,2.3539,2.3537,2.356,2.3562,2.3556,2.3562,2.3556,2.3559,2.356,2.356,2.3563,2.3572,2.3578,2.3587,2.3612,2.3611,2.3624,2.3628,2.3631,2.3634,2.3645,2.3651,2.3596,2.3596,2.3596,0,0,2.3546,2.3546,2.3554,2.3565,2.3567,2.3578,2.3558,2.3572,2.358,2.3562,2.358,2.3579,2.3582,2.3604,2.3613,2.3605,2.3649,2.3634,2.3637,2.3638,2.3648,2.3654,2.3658,2.3598,2.3598,2.3597,0,0,2.3584,2.3586,2.3604,2.3606,2.3609,2.3605,2.3609,2.361,2.3608,2.3626,2.3612,2.3622,2.3638,2.364,2.3643,2.368,2.3669,2.3683,2.3705,2.3716,2.372,2.3724,2.3736,2.374,2.3686,2.3686,2.3686,0,2.3606,2.3624,2.3615,2.3629,2.3633,2.3617,2.3634,2.3637,2.3642,2.3645,2.3635,2.3654,2.3656,2.3676,2.3685,2.3689,2.3692,2.3683,2.372,2.3724,2.3727,2.3738,2.3743,2.3687,2.3687,2.3687,2.3687,0,2.3649,2.3662,2.3676,2.3681,2.3686,2.3702,2.3695,2.3702,2.3694,2.3691,2.3707,2.3708,2.3715,2.3719,2.3713,2.3739,2.3733,2.3722,2.3704,2.3734,2.3744,2.3748,2.369,2.3689,2.3689,2.3688,0,0,2.3706,2.3704,2.3709,2.371,2.3712,2.372,2.3735,2.3741,2.3747,2.3751,2.3761,2.3775,2.3764,2.3767,2.3761,2.3771,2.3798,2.3758,2.3758,2.3764,2.3824,2.3832,2.3837,2.379,2.3791,2.3792,2.3824,0,2.3743,2.3767,2.3758,2.3783,2.3793,2.3777,2.3789,2.379,2.3787,2.3794,2.379,2.38,2.3785,2.3787,2.3796,2.3792,2.3809,2.379,2.3799,2.38,2.3799,2.3843,2.3852,2.3882,2.3828,2.3828,2.3829,0,2.3789,2.3794,2.3819,2.3816,2.382,2.3831,2.3836,2.3844,2.3844,2.3841,2.3844,2.3834,2.3847,2.3829,2.3845,2.3832,2.3836,2.3834,2.3835,2.3835,2.3816,2.3843,2.3891,2.3895,2.3835,2.3835,2.3834,0,2.3826,2.3839,2.3855,2.3856,2.3854,2.3862,2.3861,2.3861,2.3865,2.3869,2.3871,2.3876,2.3879,2.3883,2.3874,2.3863,2.3891,2.3873,2.3888,2.3888,2.3894,2.3894,2.3943,2.3898,2.3898,2.3898,2.3898,0,2.3867,2.3883,2.3871,2.3881,2.3897,2.3887,2.3903,2.3901,2.39,2.3909,2.3895,2.3903,2.3892,2.3899,2.3892,2.3906,2.3907,2.3904,2.3902,2.3905,2.3905,2.3907,2.3904,2.3899,2.3899,2.3898,2.3898,0,2.3911,2.3904,2.392,2.3916,2.3915,2.3927,2.3924,2.3932,2.3927,2.3938,2.394,2.3932,2.3939,2.3931,2.3937,2.3933,2.3951,2.3946,2.395,2.3949,2.3963,2.3961,2.4014,2.4019,2.3972,2.3972,2.3973,0,2.3938,2.3949,2.3946,2.395,2.395,2.3958,2.3961,2.3951,2.3955,2.3955,2.3963,2.3969,2.3973,2.3985,2.3979,2.3984,2.3978,2.3996,2.3979,2.3981,2.3977,2.3976,2.3976,2.4,2.4,2.4001,2.4001,0,2.3985,2.3981,2.3986,2.399,2.3994,2.3997,2.3999,2.4003,2.3992,2.3997,2.4003,2.4006,2.4012,2.4018,2.402,2.4019,2.4008,2.4007,2.401,2.4013,2.4014,2.4012,2.3959,2.4006,2.4005,2.4005,2.4005,2.4004,2.4021,2.4029,2.4028,2.4034,2.4033,2.4035,2.4042,2.4037,2.4043,2.4046,2.404,2.4047,2.4046,2.4048,2.4048,2.4053,2.4045,2.4051,2.4052,2.4053,2.4054,2.4014,2.4054,2.4054,2.4054,2.4053,2.4053,0,2.4066,2.4064,2.407,2.4072,2.4076,2.4065,2.4066,2.407,2.4077,2.4076,2.408,2.4087,2.4091,2.4086,2.4089,2.4094,2.4089,2.4095,2.4095,2.4094,2.4062,2.4058,2.4099,2.4099,2.4099,2.4099,2.4099,2.4099,2.409,2.4104,2.4099,2.4111,2.4109,2.4116,2.4117,2.4118,2.4117,2.4125,2.4128,2.4125,2.4121,2.4124,2.4127,2.4126,2.4127,2.4135,2.4131,2.4101,2.4097,2.4092,2.4089,2.4135,2.4135,2.4162,2.4163,2.4163]}]]